Regional Weather Roundup
Issued by NWS

Home | Current Version | Previous Version | Graphics & Text | Print | Product List | Glossary On
Versions: 1 2 3 4 5 6 7 8 9 10 11 12 13 14 15 16 17 18 19 20 21 22 23 24 25 26 27 28 29 30 31 32 33 34 35 36 37 38 39 40 41 42 43 44 45 46 47 48 49 50
000
ASUS43 KDMX 301508
RWRIA

WEATHER ROUNDUP FOR IOWA
NATIONAL WEATHER SERVICE DES MOINES IA
1000 AM CDT FRI SEP 30 2016

NOTE: "FAIR" INDICATES FEW OR NO CLOUDS BELOW 12,000 FEET WITH NO
SIGNIFICANT WEATHER AND/OR OBSTRUCTIONS TO VISIBILITY.

* - THESE STATIONS ARE NOT NWS STATIONS...THUS NOT UNDER NWS
QUALITY CONTROL.  THEY ALSO DO NOT REPORT WEATHER SUCH
AS PRECIPITATION OR FOG.

IAZ001>003-012>014-020>022-031>034-043>046-301600-
   NORTHWEST IOWA

CITY           SKY/WX    TMP DP  RH WIND       PRES   REMARKS
CARROLL *      SUNNY     59  52  77 VRB5      30.31S
CHEROKEE *     SUNNY     54  53  97 CALM      30.33S
DENISON *      SUNNY     57  52  82 MISG      30.30R
LE MARS *      SUNNY     55  50  82 CALM      30.33F
SHELDON *      SUNNY     61  54  77 E5        30.32S
SIOUX CITY     SUNNY     58  51  78 CALM      30.33S
SPENCER        SUNNY     60  53  77 CALM      30.34R
STORM LAKE *   SUNNY     61  52  72 VRB5      30.33R
$$

IAZ055>058-069>071-079>083-090>094-301600-
   SOUTHWEST IOWA

CITY           SKY/WX    TMP DP  RH WIND       PRES   REMARKS
ATLANTIC *     SUNNY     59  52  77 NE7       30.29S
AUDUBON *      SUNNY     59  54  82 NE7       30.31S
CLARINDA *       N/A     61  52  72 MISG      30.30S
COUNCIL BLFS * SUNNY     59  52  77 CALM      30.30S
CRESTON *      SUNNY     59  52  77 N8        30.29S
HARLAN  *      SUNNY     59  54  82 CALM      30.33S
LAMONI         SUNNY     60  53  77 N7        30.26R
RED OAK *      SUNNY     59  54  82 NE7       30.29S
SHENANDOAH *   SUNNY     59  52  77 VRB3      30.30S
$$

IAZ047>049-059>061-072>074-084-301600-
   CENTRAL IOWA

CITY           SKY/WX    TMP DP  RH WIND       PRES   REMARKS
AMES           SUNNY     61  56  83 N9        30.28R
ANKENY *         N/A    N/A N/A N/A MISG        N/A
BOONE *        SUNNY     59  54  82 NE13      30.28S HAZE
CHARITON *       N/A     57  52  82 N7        30.25S
DES MOINES     MOSUNNY   62  53  72 NE8       30.27S
GRINNELL*      PTSUNNY   59  52  78 NE8       30.26S
KNOXVILLE *    SUNNY     59  52  77 NE6G13    30.24R
MARSHALLTOWN   CLOUDY    58  54  86 NE12      30.27R
NEWTON *       MOSUNNY   59  54  82 NE9       30.25S
PELLA *        SUNNY     61  53  75 NE8       30.26R
PERRY *          N/A     61  55  82 NE7       30.29S HAZE
$$

IAZ004>006-015-016-023>025-035-036-301600-
   NORTH CENTRAL IOWA

CITY           SKY/WX    TMP DP  RH WIND       PRES   REMARKS
ALGONA *       SUNNY     59  54  82 NE8       30.33S
CLARION *      SUNNY     61  54  77 NE8G17    30.31R
ESTHERVILLE    SUNNY     58  53  84 NE5       30.34S
FORT DODGE *   SUNNY     59  52  77 E10       30.32S
MASON CITY     SUNNY     61  54  77 NE8       30.32S
FOREST CITY *    N/A     61  54  77 NE8       30.32S
WEBSTER CITY * PTSUNNY   59  55  88 NE9       30.29R
IOWA FALLS *   CLOUDY    58  53  84 N9        30.30S
$$

IAZ007>011-017>019-026>030-037>042-050>054-066-301600-
   NORTHEAST IOWA

CITY           SKY/WX    TMP DP  RH WIND       PRES   REMARKS
CEDAR RAPIDS   CLOUDY    59  56  89 N14       30.23S
CHARLES CITY * CLOUDY    57  55  94 NE8       30.30S
CLINTON *      CLOUDY    60  56  86 N13       30.20S
DECORAH *      CLOUDY    57  54  88 VRB7      30.29R
DUBUQUE        CLOUDY    59  55  87 NE15      30.23S
MONTICELLO *   CLOUDY    61  55  82 NE10      30.22F
OELWEIN *      CLOUDY    57  54  88 NE9G16    30.28S
WATERLOO       CLOUDY    58  53  84 NE12      30.27S
$$

IAZ064-065-067-068-078-301600-
   EAST CENTRAL IOWA

CITY           SKY/WX    TMP DP  RH WIND       PRES   REMARKS
DAVENPORT      CLOUDY    61  56  83 N17G23    30.20S
IOWA CITY      CLOUDY    61  55  81 N10       30.24S
MT. PLEASANT * PTSUNNY   65  57  75 N13       30.20F
MUSCATINE *    CLOUDY    63  57  82 NE12G18   30.21R
QUAD CITIES    CLOUDY    61  56  83 N9        30.18S
$$

IAZ062-063-075>077-085>089-095>099-301600-
   SOUTHEAST IOWA

CITY           SKY/WX    TMP DP  RH WIND       PRES   REMARKS
BURLINGTON     CLOUDY    58  57  97 N13       30.18S
FAIRFIELD *    CLOUDY    61  54  77 NE13G20   30.22S
FORT MADISON * CLOUDY    61  55  82 N7        30.19S
KEOKUK *       PTSUNNY   63  55  77 N12G17    30.17F
OSKALOOSA *    PTSUNNY   59  53  79 NE10      30.25R
OTTUMWA        PTSUNNY   62  52  69 NE9       30.23R
WASHINGTON *     N/A    N/A N/A N/A MISG        N/A
$$

ABBREVIATIONS USED IN REMARKS
   TC - TEMPERATURES IN CELSIUS
  WCI - WIND CHILL INDEX
   HX - HEAT INDEX
  VSB - VISIBILITY
$$





USA.gov is the U.S. government's official web portal to all federal, state and local government web resources and services.